User: anonymous   Login
Location: Innerarity Island Observatory
(30.3139°N, 87.4867°W)
Time: 17:11:14
(UTC-05:00)
Language:

JAS-2 - Orbit

View from above orbital plane
View from above orbital plane
View from above satellite
View from above satellite

Ground track
Ground track

The orbit data is extracted from the following two-line orbital elements,

1 24278U 96046B   15085.86029150 -.00000002  00000-0  37122-4 0  9990
2 24278 098.5318 065.8204 0349399 284.3399 191.1371 13.53047887918893
Epoch (UTC): 26 March 2015 20:38:49
Eccentricity: 0.0349399
inclination: 98.5318°
perigee height: 801 km
apogee height: 1321 km
right ascension of ascending node: 65.8204°
argument of perigee: 284.3399°
revolutions per day: 13.53047887
mean anomaly at epoch: 191.1371°
orbit number at epoch: 91889

The dashed part of the orbit path shows where the satellite is in the earth's shadow,  

DLR